DW6304 Weather Reports


time (UTC)temp
F
wind
direction
speed
knots
gust
knots
rain 1hr
in
rain 24hr
in
rain mn
in
humidity
%
barometer
mb
20260510071540 42 289 1.7 6.1 0.00 0.10 0.00 64 1008.2
20260510070028 43 303 1.7 7.0 0.00 0.10 0.00 62 1008.1
20260510064525 44 284 3.5 7.8 0.00 0.10 0.00 61 1008.0
20260510063015 45 262 1.7 7.0 0.00 0.10 0.00 61 1008.0
20260510061512 45 284 1.7 6.1 0.00 0.10 0.00 62 1007.7
20260510060009 45 289 0.9 3.5 0.00 0.10 0.00 64 1007.4
20260510054513 45 289 0.9 4.3 0.00 0.10 0.00 65 1007.2
20260510053004 46 289 0.0 6.1 0.00 0.10 0.00 65 1007.3
20260510051503 46 290 0.9 3.5 0.00 0.10 0.00 67 1007.2
20260510050101 46 290 0.9 3.5 0.00 0.10 0.00 67 1007.1
20260510044557 46 290 0.0 2.6 0.00 0.10 0.00 67 1006.8
20260510043100 46 290 0.0 2.6 0.00 0.10 0.00 69 1006.6
20260510041607 46 290 0.0 1.7 0.00 0.10 0.00 70 1006.4
20260510040045 46 290 0.0 0.9 0.00 0.10 0.00 70 1006.2
20260510034545 46 290 0.0 1.7 0.00 0.10 0.10 70 1006.1
20260510033043 47 290 0.0 3.5 0.00 0.10 0.10 71 1006.0
20260510031542 48 290 0.0 4.3 0.00 0.10 0.10 72 1005.8
20260510030048 49 291 0.0 1.7 0.00 0.10 0.10 74 1006.2
20260510024551 49 291 0.0 0.9 0.00 0.10 0.10 74 1005.9
20260510023039 50 292 0.9 4.3 0.00 0.10 0.10 75 1005.8
20260510021538 50 282 0.0 4.3 0.00 0.10 0.10 77 1005.5
20260510020046 51 284 0.9 7.8 0.00 0.10 0.10 79 1005.4
20260510014539 51 207 0.0 1.7 0.00 0.10 0.10 79 1004.7
20260510013036 51 207 0.0 1.7 0.00 0.10 0.10 79 1004.4
20260510011539 51 207 0.0 0.9 0.00 0.10 0.10 79 1004.0
20260510010051 51 207 0.0 2.6 0.00 0.10 0.10 79 1003.6
20260510004536 52 207 0.0 1.7 0.00 0.10 0.10 79 1003.4
20260510003034 52 207 0.0 2.6 0.00 0.10 0.10 78 1003.3
20260510001534 53 207 0.9 2.6 0.00 0.10 0.10 78 1003.0
20260510000034 53 206 0.0 2.6 0.00 0.10 0.10 78 1002.9
20260509234545 53 206 0.0 1.7 0.00 0.10 0.10 78 1002.7
20260509233032 53 206 0.0 4.3 0.00 0.10 0.10 78 1002.5
20260509231535 53 205 0.0 4.3 0.00 0.10 0.10 78 1002.2
20260509230031 53 217 0.9 5.2 0.02 0.10 0.10 78 1002.4
20260509224530 53 186 1.7 10.4 0.09 0.10 0.10 78 1002.3
20260509223028 52 217 0.0 2.6 0.10 0.10 0.10 79 1002.3
20260509221541 51 221 0.0 3.5 0.10 0.10 0.10 78 1002.6
20260509220030 50 109 0.0 2.6 0.07 0.07 0.07 77 1002.7
20260509214526 51 108 1.7 6.1 0.02 0.02 0.02 75 1002.5
20260509213027 52 136 2.6 6.1 0.00 0.00 0.00 73 1002.6
20260509211524 52 153 1.7 7.0 0.00 0.00 0.00 72 1002.9
20260509210024 53 123 2.6 9.6 0.00 0.00 0.00 72 1002.3
20260509204522 53 124 1.7 4.3 0.00 0.00 0.00 72 1002.1
20260509203019 53 153 1.7 7.8 0.00 0.00 0.00 72 1002.5
20260509201519 54 141 0.9 6.1 0.00 0.00 0.00 71 1002.6
20260509200019 53 137 3.5 8.7 0.00 0.00 0.00 71 1002.8
20260509194519 55 109 3.5 7.0 0.00 0.00 0.00 70 1002.9
20260509193015 56 142 2.6 7.0 0.00 0.00 0.00 68 1003.0
20260509191515 57 136 2.6 7.8 0.00 0.00 0.00 67 1003.3
20260509190018 58 148 2.6 10.4 0.00 0.00 0.00 66 1003.3
20260509184526 61 136 2.6 10.4 0.00 0.00 0.00 63 1003.3
20260509183017 60 152 2.6 7.8 0.00 0.00 0.00 64 1003.3
20260509181511 60 181 1.7 7.0 0.00 0.00 0.00 67 1003.4
20260509180007 59 128 2.6 7.0 0.00 0.00 0.00 67 1003.7
20260509174506 58 118 3.5 8.7 0.00 0.00 0.00 68 1003.8
20260509173007 59 124 1.7 7.0 0.00 0.00 0.00 68 1004.2
20260509171620 58 186 1.7 5.2 0.00 0.00 0.00 69 1004.7
20260509170056 56 117 1.7 5.2 0.00 0.00 0.00 71 1004.8
20260509164555 55 173 0.9 5.2 0.00 0.00 0.00 71 1005.0
20260509163057 54 201 1.7 6.1 0.00 0.00 0.00 72 1005.2
20260509161546 54 177 0.9 4.3 0.00 0.00 0.00 72 1005.3
20260509160045 53 196 0.9 5.2 0.00 0.00 0.00 74 1005.5
20260509154545 52 193 2.6 6.1 0.00 0.00 0.00 73 1005.8
20260509153044 53 192 1.7 7.8 0.00 0.00 0.00 72 1006.0
20260509151541 54 142 1.7 6.1 0.00 0.00 0.00 70 1005.8
20260509150041 54 134 1.7 7.0 0.00 0.00 0.00 70 1005.6
20260509144546 54 159 1.7 8.7 0.00 0.00 0.00 69 1005.8
20260509143036 55 183 0.9 5.2 0.00 0.00 0.00 68 1006.2
20260509141539 54 189 2.6 7.0 0.00 0.00 0.00 68 1006.3
20260509140035 53 103 1.7 6.1 0.00 0.00 0.00 68 1006.3
20260509134534 52 167 1.7 6.1 0.00 0.00 0.00 68 1006.2
20260509133030 52 114 2.6 7.0 0.00 0.00 0.00 67 1006.5
20260509131527 50 171 0.9 5.2 0.00 0.00 0.00 66 1006.6
20260509130037 49 187 0.9 3.5 0.00 0.00 0.00 64 1006.8
20260509124527 49 195 0.9 5.2 0.00 0.00 0.00 64 1006.7
20260509123024 48 198 0.9 4.3 0.00 0.00 0.00 63 1006.6
20260509121514 47 200 0.9 4.3 0.00 0.00 0.00 63 1006.4
20260509120006 46 203 0.9 2.6 0.00 0.00 0.00 64 1006.5
20260509114503 46 203 0.0 1.7 0.00 0.00 0.00 65 1006.6
20260509113104 44 203 0.0 2.6 0.00 0.00 0.00 66 1006.7
20260509111553 43 203 0.0 0.9 0.00 0.00 0.00 68 1006.7
20260509104553 38 203 0.0 0.9 0.00 0.00 0.00 73 1006.8
20260509103041 37 203 0.0 0.9 0.00 0.00 0.00 73 1006.7
20260509101540 37 203 0.0 1.7 0.00 0.00 0.00 73 1006.9
20260509100039 37 203 0.0 1.7 0.00 0.00 0.00 74 1006.9
20260509094538 37 203 0.0 0.9 0.00 0.00 0.00 74 1007.0
20260509093037 37 203 0.0 0.9 0.00 0.00 0.00 75 1007.1
20260509091536 35 203 0.0 0.0 0.00 0.00 0.00 75 1006.9
20260509090040 35 203 0.0 0.0 0.00 0.00 0.00 75 1007.1
20260509084537 35 203 0.0 0.0 0.00 0.00 0.00 75 1007.0
20260509083033 35 203 0.0 0.0 0.00 0.00 0.00 74 1007.2
20260509081540 35 203 0.0 0.0 0.00 0.00 0.00 74 1007.2
20260509080030 35 203 0.0 0.0 0.00 0.00 0.00 73 1007.3
20260509074527 35 203 0.0 0.0 0.00 0.00 0.00 73 1007.4
20260509073025 35 203 0.0 0.0 0.00 0.00 0.00 72 1007.5